Starlink 33726

operational
NORAD ID: 63437 Int'l Des: 2025-069 Owner: SPXS Country: US Constellation: starlink
LEOCIRCULAR

About Starlink 33726

Description loading...

Live Position

Loading 3D Globe...

Upcoming Passes

Altitude History

Altitude vs Time

uPlot chart will show altitude changes over time

Two-Line Element Set

1 63437U 25069E 25350.21976949 .00015232 00000-0 52486-3 0 9998
2 63437 53.1587 170.2938 0001012 89.4584 270.6533 15.30229545 40574
Epoch: Dec 16, 2025 • Age: 17 hours

Current Status

Altitude 491.4 km
Velocity 7.62 km/s
Sub-Earth Point -46.30°S, 17.71°W
Launch Date Apr 4, 2025
Age 0.7 years
Type internet

Technical Details

Classification Payload
Mass 575.00 kg
Dry Mass 530.00 kg
Total Mass 575.00 kg
Length 0.30 m
Diameter 4.10 m
Span 29.00 m
Shape Box + pan
Manufacturer SPXS
Bus Type Starlink V2MO
Phase Status In Orbit
Owner/State SPXS/US

Large Constellations

Loading constellations...